contact:dominique.lefevre@mio.osupytheas.fr, maurice.libes@osupytheas.fr, didier.mallarino@osupytheas.fr
Project:EMSO http://www.emso-fr.org/EMSO-France
Depth: 2436.0 m
Title:EMSO Ligure Ouest : Data MII capteur AQUADOPP
Date,Latitude,Longitude,X_East,Y_North,Z_Up,Amplitude_X,Amplitude_Y,Amplitude_Z,Batterie,SoundSpeed,Heading,Pitch,Roll,Pressure,TIS,Speed,Direction
, degrees North, degrees East, m.s-1, m.s-1,m.s-1, 1, 1, 1, Volt, m.s-1, degree, degree, degree, dbar, degree_C, m.s-1, degree
2021-06-19T00:04:03,42.805,6.029,0.039,-0.049,-0.017,103.0,103.0,102.0,13.4,1505.2,325.1,-0.8,1.8,2470.671,13.28,0.062,141.5
2021-06-19T00:07:03,42.805,6.029,0.036,-0.02,-0.005,103.0,104.0,102.0,13.3,1505.2,326.3,-0.8,1.8,2470.62,13.28,0.041,119.1
2021-06-19T00:10:03,42.805,6.029,0.043,-0.028,-0.003,104.0,103.0,102.0,13.3,1505.2,329.9,-0.7,1.8,2470.654,13.28,0.051,123.1
2021-06-19T00:13:03,42.805,6.029,0.029,-0.021,0.005,103.0,103.0,102.0,13.3,1505.2,325.6,-0.7,1.8,2470.669,13.28,0.035,125.9
2021-06-19T00:16:03,42.805,6.029,0.023,-0.022,-0.017,104.0,104.0,101.0,13.4,1505.2,330.4,-0.8,1.8,2470.615,13.28,0.031,133.7
2021-06-19T00:19:03,42.805,6.029,0.018,-0.027,-0.012,104.0,103.0,101.0,13.4,1505.2,330.0,-0.8,1.8,2470.611,13.28,0.032,146.3
2021-06-19T00:22:03,42.805,6.029,0.019,-0.018,0.023,104.0,103.0,102.0,13.4,1505.2,328.5,-0.8,1.8,2470.629,13.28,0.026,133.5
2021-06-19T00:25:03,42.805,6.029,0.033,-0.017,0.013,103.0,104.0,102.0,13.4,1505.2,325.7,-0.8,1.8,2470.619,13.28,0.037,117.3
2021-06-19T00:28:03,42.805,6.029,0.019,-0.052,-0.004,103.0,102.0,101.0,13.4,1505.2,324.4,-0.7,1.8,2470.61,13.28,0.055,159.9
2021-06-19T00:31:03,42.805,6.029,0.037,-0.039,-0.011,103.0,103.0,102.0,13.3,1505.2,325.3,-0.7,1.8,2470.633,13.28,0.053,136.5
2021-06-19T00:34:03,42.805,6.029,0.022,-0.04,-0.015,104.0,102.0,102.0,13.4,1505.2,328.7,-0.7,1.8,2470.606,13.28,0.045,151.2
2021-06-19T00:37:03,42.805,6.029,0.027,-0.025,0.003,103.0,104.0,101.0,13.4,1505.2,328.0,-0.7,1.8,2470.641,13.28,0.036,132.8
2021-06-19T00:40:03,42.805,6.029,0.021,-0.009,0.003,105.0,103.0,101.0,13.3,1505.2,328.1,-0.8,1.8,2470.623,13.28,0.022,113.2
2021-06-19T00:43:03,42.805,6.029,0.028,-0.024,0.002,103.0,104.0,102.0,13.4,1505.2,326.4,-0.8,1.9,2470.633,13.28,0.036,130.6
2021-06-19T00:46:03,42.805,6.029,0.019,-0.009,-0.001,103.0,102.0,102.0,13.3,1505.2,327.1,-0.7,1.8,2470.651,13.28,0.021,115.3
2021-06-19T00:49:03,42.805,6.029,0.032,-0.034,0.002,104.0,103.0,101.0,13.4,1505.2,324.6,-0.8,1.9,2470.621,13.28,0.046,136.7
2021-06-19T00:52:03,42.805,6.029,0.027,-0.036,0.016,103.0,103.0,102.0,13.3,1505.2,326.0,-0.7,1.8,2470.643,13.28,0.045,143.1
2021-06-19T00:55:03,42.805,6.029,0.025,-0.028,0.022,105.0,102.0,102.0,13.4,1505.2,328.7,-0.7,1.8,2470.625,13.28,0.037,138.2
2021-06-19T00:58:03,42.805,6.029,0.026,-0.027,0.0,103.0,103.0,101.0,13.4,1505.2,327.7,-0.8,1.8,2470.624,13.28,0.037,136.1
2021-06-19T01:04:03,42.805,6.029,0.029,-0.043,0.018,104.0,103.0,102.0,13.4,1505.2,325.1,-0.7,1.8,2470.646,13.28,0.051,146.0
2021-06-19T01:07:03,42.805,6.029,0.04,-0.044,0.007,103.0,102.0,102.0,13.3,1505.2,327.2,-0.8,1.8,2470.648,13.28,0.059,137.7
2021-06-19T01:10:03,42.805,6.029,0.047,-0.026,0.04,103.0,103.0,101.0,13.4,1505.2,325.5,-0.7,1.8,2470.676,13.28,0.053,118.9
2021-06-19T01:13:03,42.805,6.029,0.015,-0.016,0.021,104.0,102.0,101.0,13.4,1505.2,326.7,-0.8,1.8,2470.642,13.28,0.021,136.9
2021-06-19T01:16:03,42.805,6.029,0.005,-0.037,-0.006,104.0,102.0,101.0,13.4,1505.2,330.3,-0.7,1.8,2470.628,13.28,0.037,172.3
2021-06-19T01:19:03,42.805,6.029,0.035,-0.037,-0.005,103.0,103.0,101.0,13.4,1505.2,327.1,-0.7,1.8,2470.634,13.28,0.05,136.6
2021-06-19T01:22:03,42.805,6.029,0.023,-0.031,-0.01,103.0,103.0,102.0,13.4,1505.2,328.1,-0.8,1.8,2470.609,13.28,0.038,143.4
2021-06-19T01:25:03,42.805,6.029,0.024,-0.036,0.008,103.0,103.0,101.0,13.3,1505.2,328.4,-0.7,1.8,2470.629,13.28,0.043,146.3
2021-06-19T01:28:03,42.805,6.029,0.045,-0.032,0.027,103.0,103.0,102.0,13.4,1505.2,327.5,-0.8,1.8,2470.633,13.28,0.055,125.4
2021-06-19T01:31:03,42.805,6.029,0.021,-0.013,-0.036,103.0,102.0,101.0,13.3,1505.2,327.4,-0.7,1.8,2470.651,13.28,0.024,121.8
2021-06-19T01:34:03,42.805,6.029,0.06,-0.038,-0.002,104.0,103.0,102.0,13.4,1505.2,325.5,-0.7,1.8,2470.635,13.28,0.071,122.3
2021-06-19T01:37:03,42.805,6.029,0.042,-0.025,0.011,103.0,103.0,102.0,13.3,1505.2,324.8,-0.7,1.8,2470.627,13.28,0.048,120.8
2021-06-19T01:40:03,42.805,6.029,0.04,-0.026,-0.005,105.0,105.0,101.0,13.4,1505.2,328.8,-0.8,1.8,2470.656,13.28,0.047,123.0
2021-06-19T01:43:03,42.805,6.029,0.042,-0.036,0.008,104.0,103.0,102.0,13.3,1505.2,329.0,-0.7,1.8,2470.638,13.28,0.055,130.6
2021-06-19T01:46:03,42.805,6.029,0.029,-0.06,-0.033,103.0,104.0,101.0,13.4,1505.2,326.0,-0.8,1.8,2470.694,13.28,0.066,154.2
2021-06-19T01:49:03,42.805,6.029,0.032,-0.011,0.01,103.0,104.0,102.0,13.4,1505.2,326.3,-0.7,1.9,2470.627,13.28,0.033,109.0
2021-06-19T01:52:03,42.805,6.029,0.018,-0.013,-0.003,103.0,104.0,102.0,13.4,1505.2,326.6,-0.7,1.8,2470.656,13.28,0.022,125.8
2021-06-19T01:55:03,42.805,6.029,0.048,-0.032,0.018,103.0,103.0,102.0,13.4,1505.2,326.4,-0.8,1.8,2470.671,13.28,0.057,123.7
2021-06-19T01:58:03,42.805,6.029,0.025,-0.022,0.0,103.0,103.0,102.0,13.4,1505.2,326.5,-0.7,1.8,2470.652,13.28,0.033,131.3
2021-06-19T02:04:03,42.805,6.029,0.024,-0.044,0.024,103.0,102.0,102.0,13.4,1505.2,327.9,-0.8,1.8,2470.659,13.28,0.05,151.4
2021-06-19T02:07:03,42.805,6.029,0.033,-0.028,-0.002,103.0,103.0,102.0,13.4,1505.2,328.3,-0.8,1.8,2470.676,13.28,0.043,130.3
2021-06-19T02:10:03,42.805,6.029,0.042,-0.036,-0.009,103.0,104.0,101.0,13.3,1505.2,326.5,-0.7,1.8,2470.63,13.28,0.055,130.6
2021-06-19T02:13:03,42.805,6.029,0.043,-0.038,-0.008,102.0,103.0,101.0,13.4,1505.2,328.2,-0.8,1.8,2470.636,13.28,0.057,131.5
2021-06-19T02:16:03,42.805,6.029,0.024,-0.04,-0.009,105.0,102.0,101.0,13.4,1505.2,326.3,-0.7,1.9,2470.642,13.28,0.046,149.0
2021-06-19T02:19:03,42.805,6.029,0.035,-0.04,-0.033,103.0,104.0,102.0,13.3,1505.2,327.1,-0.8,1.8,2470.622,13.28,0.053,138.8
2021-06-19T02:22:03,42.805,6.029,0.019,-0.014,0.017,103.0,104.0,102.0,13.4,1505.2,326.4,-0.8,1.8,2470.653,13.28,0.023,126.4
2021-06-19T02:25:03,42.805,6.029,0.02,-0.048,0.007,103.0,103.0,102.0,13.4,1505.2,329.8,-0.7,1.8,2470.663,13.28,0.052,157.4
2021-06-19T02:28:03,42.805,6.029,0.025,-0.023,0.007,103.0,104.0,101.0,13.4,1505.2,328.0,-0.7,1.8,2470.653,13.28,0.033,132.6
2021-06-19T02:31:03,42.805,6.029,0.022,-0.039,0.008,102.0,104.0,101.0,13.4,1505.2,328.0,-0.7,1.8,2470.649,13.28,0.044,150.6
2021-06-19T02:34:03,42.805,6.029,0.039,-0.025,-0.001,103.0,104.0,100.0,13.4,1505.2,324.8,-0.8,1.8,2470.663,13.28,0.046,122.7
2021-06-19T02:37:03,42.805,6.029,0.056,-0.041,0.0,103.0,105.0,101.0,13.4,1505.2,326.1,-0.8,1.8,2470.653,13.28,0.069,126.2
2021-06-19T02:40:03,42.805,6.029,0.038,-0.033,-0.008,103.0,102.0,102.0,13.3,1505.2,325.6,-0.7,1.8,2470.599,13.28,0.05,131.0
2021-06-19T02:43:03,42.805,6.029,0.024,-0.029,0.01,103.0,103.0,102.0,13.4,1505.2,326.2,-0.8,1.9,2470.644,13.28,0.037,140.4
2021-06-19T02:46:03,42.805,6.029,0.023,-0.023,0.002,103.0,103.0,102.0,13.4,1505.2,326.4,-0.7,1.8,2470.637,13.28,0.032,135.0
2021-06-19T02:49:03,42.805,6.029,0.035,-0.016,-0.025,104.0,103.0,102.0,13.4,1505.2,328.2,-0.7,1.8,2470.663,13.28,0.038,114.6
2021-06-19T02:52:03,42.805,6.029,0.025,-0.027,-0.007,104.0,104.0,101.0,13.4,1505.2,328.6,-0.8,1.9,2470.645,13.28,0.036,137.2
2021-06-19T02:55:03,42.805,6.029,0.033,-0.03,0.002,103.0,103.0,102.0,13.4,1505.2,330.3,-0.7,1.9,2470.654,13.28,0.044,132.3
2021-06-19T02:58:03,42.805,6.029,0.058,-0.043,-0.008,104.0,103.0,101.0,13.4,1505.2,329.3,-0.8,1.8,2470.653,13.28,0.072,126.6
2021-06-19T03:04:03,42.805,6.029,0.027,-0.034,-0.03,104.0,105.0,102.0,13.3,1505.2,328.7,-0.8,1.8,2470.639,13.28,0.043,141.5
2021-06-19T03:07:03,42.805,6.029,0.043,-0.02,0.02,104.0,103.0,102.0,13.4,1505.2,328.9,-0.8,1.8,2470.653,13.28,0.047,114.9
2021-06-19T03:10:03,42.805,6.029,0.042,-0.024,0.039,103.0,105.0,100.0,13.4,1505.2,325.9,-0.8,1.8,2470.663,13.28,0.048,119.7
2021-06-19T03:13:03,42.805,6.029,0.04,-0.037,0.006,104.0,104.0,101.0,13.4,1505.2,326.6,-0.8,1.8,2470.689,13.28,0.054,132.8
2021-06-19T03:16:03,42.805,6.029,0.027,-0.025,-0.025,105.0,104.0,101.0,13.4,1505.2,325.8,-0.8,1.8,2470.647,13.28,0.036,132.8
2021-06-19T03:19:03,42.805,6.029,0.029,-0.051,-0.017,103.0,103.0,102.0,13.3,1505.2,329.7,-0.7,1.8,2470.655,13.28,0.058,150.4
2021-06-19T03:22:03,42.805,6.029,0.032,-0.03,0.015,104.0,103.0,101.0,13.4,1505.2,326.4,-0.8,1.8,2470.686,13.28,0.043,133.1
2021-06-19T03:25:03,42.805,6.029,0.025,-0.052,-0.019,103.0,103.0,102.0,13.4,1505.2,330.1,-0.7,1.8,2470.627,13.28,0.057,154.3
2021-06-19T03:28:03,42.805,6.029,0.041,-0.042,0.024,105.0,103.0,103.0,13.4,1505.2,325.3,-0.7,1.8,2470.62,13.28,0.058,135.7
2021-06-19T03:31:03,42.805,6.029,0.028,-0.038,0.021,103.0,103.0,102.0,13.3,1505.2,327.1,-0.8,1.8,2470.608,13.28,0.047,143.6
2021-06-19T03:34:03,42.805,6.029,0.026,-0.044,0.001,102.0,103.0,101.0,13.4,1505.2,325.0,-0.7,1.8,2470.618,13.28,0.051,149.4
2021-06-19T03:37:03,42.805,6.029,0.042,-0.046,0.001,103.0,103.0,101.0,13.4,1505.2,328.3,-0.8,1.8,2470.637,13.28,0.062,137.6
2021-06-19T03:40:03,42.805,6.029,0.055,-0.034,-0.003,104.0,102.0,101.0,13.4,1505.2,326.0,-0.7,1.8,2470.634,13.28,0.064,121.7
2021-06-19T03:43:03,42.805,6.029,0.058,-0.048,0.008,103.0,103.0,101.0,13.4,1505.2,327.6,-0.7,1.8,2470.605,13.28,0.075,129.6
2021-06-19T03:46:03,42.805,6.029,0.019,-0.03,0.006,102.0,104.0,103.0,13.4,1505.2,327.0,-0.7,1.8,2470.611,13.28,0.035,147.7
2021-06-19T03:49:03,42.805,6.029,0.022,-0.02,-0.017,105.0,102.0,101.0,13.3,1505.2,325.2,-0.8,1.8,2470.625,13.28,0.029,132.3
2021-06-19T03:52:03,42.805,6.029,0.048,-0.027,0.003,104.0,102.0,102.0,13.4,1505.2,326.9,-0.8,1.8,2470.642,13.28,0.055,119.4
2021-06-19T03:55:03,42.805,6.029,0.029,-0.053,-0.013,103.0,103.0,102.0,13.4,1505.2,327.1,-0.8,1.8,2470.61,13.28,0.06,151.3
2021-06-19T03:58:03,42.805,6.029,0.034,-0.039,-0.001,103.0,105.0,101.0,13.4,1505.2,328.7,-0.8,1.8,2470.62,13.28,0.051,138.9
2021-06-19T04:04:03,42.805,6.029,0.055,-0.021,0.009,104.0,103.0,101.0,13.4,1505.2,325.3,-0.7,1.8,2470.629,13.28,0.058,110.9
2021-06-19T04:07:03,42.805,6.029,0.017,-0.042,-0.01,102.0,103.0,102.0,13.4,1505.2,328.3,-0.7,1.8,2470.639,13.28,0.045,158.0
2021-06-19T04:10:03,42.805,6.029,0.025,-0.01,-0.005,104.0,103.0,101.0,13.4,1505.2,328.1,-0.8,1.8,2470.604,13.28,0.026,111.8
2021-06-19T04:13:03,42.805,6.029,0.016,-0.029,-0.019,103.0,104.0,101.0,13.3,1505.2,326.6,-0.8,1.8,2470.635,13.28,0.033,151.1
2021-06-19T04:16:03,42.805,6.029,0.032,-0.032,0.0,103.0,103.0,102.0,13.4,1505.2,324.6,-0.8,1.8,2470.615,13.28,0.045,135.0
2021-06-19T04:19:03,42.805,6.029,0.013,-0.049,-0.034,104.0,103.0,101.0,13.4,1505.2,327.3,-0.7,1.8,2470.635,13.28,0.05,165.1
2021-06-19T04:22:03,42.805,6.029,0.011,-0.031,-0.016,103.0,104.0,101.0,13.4,1505.2,326.3,-0.8,1.8,2470.639,13.28,0.032,160.5
2021-06-19T04:25:03,42.805,6.029,0.019,-0.004,-0.001,105.0,102.0,101.0,13.3,1505.2,325.4,-0.8,1.8,2470.599,13.28,0.019,101.9
2021-06-19T04:28:03,42.805,6.029,0.046,-0.038,0.011,102.0,103.0,101.0,13.4,1505.2,326.8,-0.8,1.8,2470.638,13.28,0.059,129.6
2021-06-19T04:31:03,42.805,6.029,0.033,-0.045,-0.011,104.0,104.0,100.0,13.4,1505.2,326.4,-0.8,1.8,2470.629,13.28,0.055,143.7
2021-06-19T04:34:03,42.805,6.029,0.02,-0.064,-0.023,103.0,104.0,101.0,13.3,1505.2,328.2,-0.7,1.8,2470.613,13.28,0.067,162.6
2021-06-19T04:37:03,42.805,6.029,0.036,-0.064,0.014,103.0,104.0,100.0,13.4,1505.2,329.6,-0.7,1.8,2470.581,13.28,0.073,150.6
2021-06-19T04:40:03,42.805,6.029,0.043,-0.039,-0.027,103.0,103.0,101.0,13.3,1505.2,325.5,-0.8,1.8,2470.624,13.28,0.058,132.2
2021-06-19T04:43:03,42.805,6.029,0.025,-0.027,-0.014,103.0,105.0,102.0,13.3,1505.2,326.4,-0.8,1.8,2470.599,13.28,0.036,137.2
2021-06-19T04:46:03,42.805,6.029,0.021,-0.043,-0.025,103.0,103.0,102.0,13.4,1505.2,329.8,-0.8,1.8,2470.59,13.28,0.047,154.0
2021-06-19T04:49:03,42.805,6.029,0.023,-0.024,-0.016,104.0,104.0,101.0,13.4,1505.2,328.3,-0.8,1.8,2470.618,13.28,0.033,136.2
2021-06-19T04:52:03,42.805,6.029,0.016,-0.028,-0.015,103.0,103.0,101.0,13.4,1505.2,325.6,-0.7,1.8,2470.599,13.28,0.032,150.3
2021-06-19T04:55:03,42.805,6.029,0.017,-0.019,-0.004,103.0,104.0,102.0,13.4,1505.2,328.6,-0.7,1.8,2470.592,13.28,0.025,138.2
2021-06-19T04:58:03,42.805,6.029,0.034,-0.035,0.029,104.0,102.0,101.0,13.4,1505.2,328.5,-0.8,1.8,2470.553,13.28,0.048,135.8
2021-06-19T05:04:03,42.805,6.029,0.043,-0.029,0.005,103.0,103.0,102.0,13.3,1505.2,328.5,-0.7,1.8,2470.642,13.28,0.051,124.0
2021-06-19T05:07:03,42.805,6.029,0.027,-0.028,-0.009,104.0,103.0,101.0,13.3,1505.2,325.1,-0.8,1.9,2470.588,13.28,0.038,136.0
2021-06-19T05:10:03,42.805,6.029,0.031,-0.024,-0.013,103.0,103.0,102.0,13.4,1505.2,326.3,-0.8,1.8,2470.647,13.28,0.039,127.7
2021-06-19T05:13:03,42.805,6.029,0.029,-0.038,-0.017,104.0,104.0,101.0,13.4,1505.2,329.0,-0.7,1.8,2470.589,13.28,0.047,142.7
2021-06-19T05:16:03,42.805,6.029,0.039,-0.045,-0.005,103.0,103.0,102.0,13.4,1505.2,327.9,-0.8,1.8,2470.614,13.28,0.059,139.1
2021-06-19T05:19:03,42.805,6.029,0.038,-0.051,0.008,103.0,103.0,101.0,13.4,1505.2,327.6,-0.8,1.8,2470.614,13.28,0.063,143.3
2021-06-19T05:22:03,42.805,6.029,0.025,-0.044,0.0,104.0,102.0,101.0,13.4,1505.2,325.4,-0.7,1.8,2470.59,13.28,0.05,150.4
2021-06-19T05:25:03,42.805,6.029,0.023,-0.013,0.023,102.0,102.0,101.0,13.3,1505.2,326.1,-0.7,1.8,2470.551,13.28,0.026,119.5
2021-06-19T05:28:03,42.805,6.029,0.021,-0.026,-0.015,103.0,103.0,102.0,13.4,1505.2,325.4,-0.8,1.8,2470.568,13.28,0.033,141.1
2021-06-19T05:31:03,42.805,6.029,0.021,-0.02,0.003,103.0,104.0,101.0,13.4,1505.2,326.7,-0.8,1.9,2470.547,13.28,0.028,133.6
2021-06-19T05:34:03,42.805,6.029,0.02,-0.009,0.0,103.0,102.0,101.0,13.4,1505.2,329.2,-0.7,1.8,2470.572,13.28,0.021,114.2
2021-06-19T05:37:03,42.805,6.029,0.014,-0.037,-0.005,103.0,103.0,103.0,13.4,1505.2,329.3,-0.8,1.9,2470.593,13.28,0.039,159.3
2021-06-19T05:40:03,42.805,6.029,0.013,-0.028,0.001,104.0,102.0,102.0,13.4,1505.2,324.9,-0.7,1.8,2470.58,13.28,0.03,155.1
2021-06-19T05:43:03,42.805,6.029,0.029,-0.04,0.0,103.0,103.0,101.0,13.4,1505.2,325.2,-0.7,1.8,2470.562,13.28,0.049,144.1
2021-06-19T05:46:03,42.805,6.029,0.017,-0.015,0.0,103.0,103.0,102.0,13.4,1505.2,325.0,-0.7,1.8,2470.549,13.28,0.022,131.4
2021-06-19T05:49:03,42.805,6.029,0.037,-0.018,0.012,104.0,102.0,101.0,13.4,1505.2,324.9,-0.7,1.8,2470.571,13.28,0.041,115.9
2021-06-19T05:52:03,42.805,6.029,0.041,-0.056,0.005,102.0,103.0,101.0,13.4,1505.2,328.4,-0.7,1.8,2470.575,13.28,0.069,143.8
2021-06-19T05:55:03,42.805,6.029,0.016,-0.03,-0.047,103.0,103.0,102.0,13.4,1505.2,328.7,-0.7,1.8,2470.547,13.28,0.034,151.9
2021-06-19T05:58:03,42.805,6.029,0.025,-0.031,0.0,103.0,103.0,102.0,13.4,1505.2,326.7,-0.7,1.8,2470.564,13.28,0.039,141.1
2021-06-19T06:04:03,42.805,6.029,0.012,-0.04,0.021,103.0,103.0,101.0,13.4,1505.2,329.5,-0.7,1.8,2470.564,13.28,0.041,163.3
2021-06-19T06:07:03,42.805,6.029,0.007,-0.033,-0.005,103.0,102.0,102.0,13.4,1505.2,326.5,-0.7,1.8,2470.596,13.28,0.033,168.0
2021-06-19T06:10:03,42.805,6.029,0.024,-0.036,-0.007,103.0,102.0,101.0,13.3,1505.2,326.5,-0.7,1.8,2470.539,13.28,0.043,146.3
2021-06-19T06:13:03,42.805,6.029,0.017,-0.029,-0.015,104.0,103.0,101.0,13.4,1505.2,328.1,-0.7,1.8,2470.549,13.28,0.033,149.6
2021-06-19T06:16:03,42.805,6.029,0.02,-0.028,0.006,103.0,103.0,101.0,13.3,1505.2,326.9,-0.8,1.8,2470.565,13.28,0.034,144.5
2021-06-19T06:19:03,42.805,6.029,0.038,-0.017,-0.015,102.0,102.0,102.0,13.3,1505.2,327.2,-0.8,1.8,2470.566,13.28,0.041,114.1
2021-06-19T06:22:03,42.805,6.029,0.01,-0.03,0.01,105.0,102.0,101.0,13.4,1505.2,326.0,-0.8,1.8,2470.545,13.28,0.031,161.6
2021-06-19T06:25:03,42.805,6.029,0.029,-0.026,0.015,104.0,102.0,102.0,13.4,1505.2,329.4,-0.8,1.8,2470.524,13.28,0.038,131.9
2021-06-19T06:28:03,42.805,6.029,0.008,-0.032,0.005,103.0,103.0,102.0,13.3,1505.2,325.7,-0.7,1.8,2470.533,13.28,0.032,166.0
2021-06-19T06:31:03,42.805,6.029,0.031,-0.009,-0.005,103.0,102.0,101.0,13.4,1505.2,325.7,-0.8,1.8,2470.536,13.28,0.032,106.2
2021-06-19T06:34:03,42.805,6.029,0.01,-0.036,0.01,102.0,104.0,102.0,13.4,1505.2,326.3,-0.7,1.8,2470.557,13.28,0.037,164.5
2021-06-19T06:37:03,42.805,6.029,0.027,-0.034,0.007,103.0,103.0,100.0,13.3,1505.2,327.2,-0.7,1.8,2470.525,13.28,0.043,141.5
2021-06-19T06:40:03,42.805,6.029,0.012,-0.025,-0.031,103.0,103.0,101.0,13.4,1505.2,329.9,-0.7,1.8,2470.511,13.28,0.027,154.4
2021-06-19T06:43:03,42.805,6.029,0.02,-0.029,0.0,104.0,103.0,102.0,13.4,1505.2,329.7,-0.7,1.8,2470.521,13.28,0.035,145.4
2021-06-19T06:46:03,42.805,6.029,0.007,-0.024,-0.005,102.0,103.0,101.0,13.4,1505.2,325.2,-0.7,1.8,2470.549,13.28,0.025,163.7
2021-06-19T06:49:03,42.805,6.029,0.029,-0.022,-0.001,102.0,102.0,102.0,13.4,1505.2,324.3,-0.7,1.8,2470.565,13.28,0.036,127.2
2021-06-19T06:52:03,42.805,6.029,0.015,-0.023,-0.02,103.0,102.0,102.0,13.4,1505.2,328.9,-0.8,1.8,2470.511,13.28,0.027,146.9
2021-06-19T06:55:03,42.805,6.029,0.016,-0.049,-0.009,103.0,102.0,101.0,13.4,1505.2,329.5,-0.8,1.9,2470.574,13.28,0.051,161.9
2021-06-19T06:58:03,42.805,6.029,0.017,-0.026,0.002,101.0,102.0,101.0,13.4,1505.2,326.4,-0.7,1.8,2470.502,13.28,0.031,146.8
2021-06-19T07:04:03,42.805,6.029,0.024,-0.023,-0.026,103.0,103.0,101.0,13.4,1505.2,324.4,-0.8,1.8,2470.582,13.28,0.033,133.8
2021-06-19T07:07:03,42.805,6.029,0.038,-0.015,0.027,102.0,102.0,102.0,13.4,1505.2,329.3,-0.7,1.8,2470.551,13.28,0.04,111.5
2021-06-19T07:10:03,42.805,6.029,0.017,-0.03,-0.002,102.0,102.0,101.0,13.4,1505.2,326.6,-0.7,1.8,2470.542,13.28,0.034,150.5
2021-06-19T07:13:03,42.805,6.029,0.012,-0.047,0.001,102.0,103.0,101.0,13.3,1505.2,327.0,-0.7,1.8,2470.554,13.28,0.048,165.7
2021-06-19T07:16:03,42.805,6.029,0.024,-0.042,-0.029,103.0,103.0,101.0,13.3,1505.2,325.3,-0.7,1.8,2470.511,13.28,0.048,150.3
2021-06-19T07:19:03,42.805,6.029,0.021,-0.029,0.008,104.0,102.0,100.0,13.3,1505.2,329.8,-0.7,1.8,2470.521,13.28,0.035,144.1
2021-06-19T07:22:03,42.805,6.029,0.038,-0.048,-0.045,103.0,103.0,100.0,13.4,1505.2,326.7,-0.7,1.8,2470.504,13.28,0.061,141.6
2021-06-19T07:25:03,42.805,6.029,0.015,-0.013,-0.012,102.0,102.0,103.0,13.4,1505.2,326.1,-0.7,1.8,2470.508,13.28,0.019,130.9
2021-06-19T07:28:03,42.805,6.029,0.024,-0.039,-0.008,103.0,102.0,101.0,13.3,1505.2,328.4,-0.7,1.8,2470.484,13.28,0.045,148.4
2021-06-19T07:31:03,42.805,6.029,0.014,-0.042,0.0,103.0,102.0,101.0,13.4,1505.2,329.7,-0.8,1.8,2470.474,13.28,0.044,161.6
2021-06-19T07:34:03,42.805,6.029,0.018,-0.039,-0.005,103.0,102.0,102.0,13.4,1505.2,328.1,-0.8,1.8,2470.502,13.28,0.042,155.2
2021-06-19T07:37:03,42.805,6.029,0.001,-0.029,-0.019,104.0,101.0,102.0,13.4,1505.2,329.3,-0.8,1.8,2470.462,13.28,0.029,178.0
2021-06-19T07:40:03,42.805,6.029,0.011,-0.042,-0.021,102.0,103.0,102.0,13.3,1505.2,324.6,-0.7,1.8,2470.504,13.28,0.043,165.3
2021-06-19T07:43:03,42.805,6.029,0.056,-0.031,-0.002,102.0,102.0,102.0,13.3,1505.2,324.9,-0.8,1.8,2470.462,13.28,0.064,119.0
2021-06-19T07:46:03,42.805,6.029,0.045,-0.025,0.015,101.0,103.0,101.0,13.3,1505.2,329.6,-0.8,1.8,2470.518,13.28,0.051,119.1
2021-06-19T07:49:03,42.805,6.029,0.024,-0.02,-0.006,102.0,102.0,101.0,13.4,1505.2,327.2,-0.7,1.8,2470.488,13.28,0.031,129.8
2021-06-19T07:52:03,42.805,6.029,0.029,-0.052,-0.038,104.0,102.0,101.0,13.4,1505.2,324.9,-0.7,1.8,2470.496,13.28,0.059,150.9
2021-06-19T07:55:03,42.805,6.029,0.025,-0.036,-0.014,102.0,103.0,101.0,13.4,1505.2,329.2,-0.8,1.8,2470.522,13.28,0.043,145.2
2021-06-19T07:58:03,42.805,6.029,0.011,-0.046,-0.021,103.0,101.0,101.0,13.4,1505.2,329.9,-0.7,1.8,2470.45,13.28,0.047,166.6
2021-06-19T08:04:03,42.805,6.029,0.034,-0.018,0.03,104.0,103.0,101.0,13.3,1505.2,325.8,-0.7,1.8,2470.511,13.28,0.038,117.9
2021-06-19T08:07:03,42.805,6.029,0.0,-0.018,-0.018,103.0,103.0,101.0,13.4,1505.2,326.0,-0.8,1.8,2470.501,13.28,0.018,180.0
2021-06-19T08:10:03,42.805,6.029,0.016,-0.012,-0.016,103.0,102.0,101.0,13.3,1505.2,329.1,-0.7,1.8,2470.508,13.28,0.02,126.9
2021-06-19T08:13:03,42.805,6.029,0.015,-0.02,0.017,104.0,103.0,100.0,13.4,1505.2,326.3,-0.7,1.8,2470.502,13.28,0.025,143.1
2021-06-19T08:16:03,42.805,6.029,0.026,-0.021,-0.003,103.0,103.0,102.0,13.3,1505.2,324.8,-0.8,1.8,2470.487,13.28,0.033,128.9
2021-06-19T08:19:03,42.805,6.029,0.035,-0.033,0.0,103.0,104.0,101.0,13.4,1505.2,329.3,-0.7,1.8,2470.482,13.28,0.048,133.3
2021-06-19T08:22:03,42.805,6.029,0.031,-0.051,0.019,104.0,102.0,101.0,13.4,1505.2,325.8,-0.8,1.8,2470.463,13.28,0.059,148.7
2021-06-19T08:25:03,42.805,6.029,0.022,-0.031,0.018,102.0,101.0,101.0,13.4,1505.2,328.4,-0.8,1.8,2470.479,13.28,0.038,144.6
2021-06-19T08:28:03,42.805,6.029,0.022,-0.051,-0.001,103.0,102.0,101.0,13.3,1505.2,328.9,-0.8,1.8,2470.466,13.28,0.055,156.7
2021-06-19T08:31:03,42.805,6.029,0.035,-0.027,0.007,104.0,103.0,100.0,13.4,1505.2,325.9,-0.8,1.8,2470.51,13.28,0.044,127.7
2021-06-19T08:34:03,42.805,6.029,0.004,-0.024,-0.017,103.0,103.0,102.0,13.3,1505.2,328.2,-0.7,1.8,2470.472,13.28,0.024,170.5
2021-06-19T08:37:03,42.805,6.029,0.031,-0.029,-0.022,103.0,104.0,101.0,13.3,1505.2,330.1,-0.7,1.8,2470.459,13.28,0.042,133.1
2021-06-19T08:40:03,42.805,6.029,0.045,-0.036,0.001,101.0,103.0,102.0,13.4,1505.2,327.3,-0.7,1.9,2470.455,13.28,0.057,128.7
2021-06-19T08:43:03,42.805,6.029,0.031,-0.053,-0.031,102.0,102.0,101.0,13.3,1505.2,326.6,-0.8,1.8,2470.487,13.28,0.061,149.7
2021-06-19T08:46:03,42.805,6.029,0.032,-0.014,0.034,102.0,101.0,102.0,13.3,1505.2,329.8,-0.7,1.8,2470.443,13.28,0.034,113.6
2021-06-19T08:49:03,42.805,6.029,0.034,-0.047,-0.029,101.0,102.0,103.0,13.4,1505.2,326.4,-0.8,1.8,2470.476,13.28,0.058,144.1
2021-06-19T08:52:03,42.805,6.029,0.015,-0.003,-0.01,103.0,104.0,100.0,13.4,1505.2,327.0,-0.8,1.8,2470.449,13.28,0.015,101.3
2021-06-19T08:55:03,42.805,6.029,-0.002,-0.027,-0.006,103.0,102.0,101.0,13.4,1505.2,325.4,-0.8,1.8,2470.456,13.28,0.027,184.2
2021-06-19T08:58:03,42.805,6.029,0.01,-0.043,-0.013,103.0,102.0,101.0,13.4,1505.2,329.8,-0.7,1.8,2470.47,13.28,0.044,166.9
2021-06-19T09:04:03,42.805,6.029,0.008,-0.038,-0.019,102.0,103.0,101.0,13.3,1505.2,327.5,-0.8,1.8,2470.516,13.28,0.038,168.1
2021-06-19T09:07:03,42.805,6.029,0.021,-0.055,-0.017,104.0,102.0,101.0,13.4,1505.2,327.1,-0.8,1.8,2470.502,13.28,0.058,159.1
2021-06-19T09:10:03,42.805,6.029,0.017,-0.043,-0.027,103.0,102.0,101.0,13.4,1505.2,326.1,-0.8,1.8,2470.469,13.28,0.046,158.4
2021-06-19T09:13:03,42.805,6.029,0.011,-0.045,-0.002,102.0,101.0,101.0,13.4,1505.2,325.6,-0.7,1.8,2470.461,13.28,0.046,166.3
2021-06-19T09:16:03,42.805,6.029,0.003,-0.003,0.011,103.0,102.0,101.0,13.3,1505.2,328.6,-0.8,1.8,2470.467,13.28,0.004,135.0
2021-06-19T09:19:03,42.805,6.029,0.032,-0.021,-0.011,102.0,103.0,100.0,13.4,1505.2,328.2,-0.7,1.8,2470.489,13.28,0.038,123.3
2021-06-19T09:22:03,42.805,6.029,0.03,-0.026,0.005,103.0,103.0,101.0,13.4,1505.2,325.7,-0.7,1.8,2470.456,13.28,0.039,130.9
2021-06-19T09:25:03,42.805,6.029,0.01,-0.032,0.003,102.0,103.0,101.0,13.3,1505.2,327.8,-0.7,1.8,2470.477,13.28,0.033,162.6
2021-06-19T09:28:03,42.805,6.029,0.016,-0.025,0.01,103.0,101.0,101.0,13.4,1505.2,329.9,-0.7,1.8,2470.453,13.28,0.029,147.4
2021-06-19T09:31:03,42.805,6.029,0.003,-0.023,-0.004,103.0,103.0,102.0,13.4,1505.2,328.5,-0.7,1.9,2470.463,13.28,0.023,172.6
2021-06-19T09:34:03,42.805,6.029,0.027,-0.028,-0.005,102.0,103.0,100.0,13.4,1505.2,330.1,-0.8,1.8,2470.472,13.28,0.038,136.0
2021-06-19T09:37:03,42.805,6.029,0.013,-0.04,-0.004,102.0,103.0,101.0,13.3,1505.2,328.2,-0.8,1.8,2470.453,13.28,0.042,162.0
2021-06-19T09:40:03,42.805,6.029,0.033,-0.035,0.0,103.0,102.0,102.0,13.3,1505.2,325.1,-0.8,1.8,2470.506,13.28,0.048,136.7
2021-06-19T09:43:03,42.805,6.029,0.005,-0.012,-0.004,102.0,102.0,101.0,13.4,1505.2,325.9,-0.7,1.8,2470.506,13.28,0.013,157.4
2021-06-19T09:46:03,42.805,6.029,0.015,-0.001,0.026,103.0,103.0,101.0,13.4,1505.2,326.0,-0.7,1.9,2470.43,13.28,0.015,93.8
2021-06-19T09:49:03,42.805,6.029,0.011,-0.024,-0.017,102.0,102.0,101.0,13.3,1505.2,326.3,-0.7,1.8,2470.464,13.28,0.026,155.4
2021-06-19T09:52:03,42.805,6.029,0.014,-0.021,0.022,103.0,104.0,100.0,13.4,1505.2,326.8,-0.8,1.8,2470.451,13.28,0.025,146.3
2021-06-19T09:55:03,42.805,6.029,0.035,-0.04,-0.034,103.0,104.0,101.0,13.4,1505.2,327.7,-0.7,1.8,2470.495,13.28,0.053,138.8